When you browse on this site, cookies collect data to enhance your experience and personalize the content and advertising you see.
Visit our Privacy Policy to learn more. By continuing to use the site, you agree to this use of cookies and data.
  • In Hungary
  • List of Countries
  • For 7 days
  • Water Temperature
  • Weather Map
  • News
  • Weather Widgets
  • user-avatar
    Login

    Hourly Weather Koshevichi

    Today, 25 January, Saturday

    Time Temperature Precipitation Wind Pressure Humidity
    00:00 +1°C° 0 mm 5 mps 737 mmHg 92%
    01:00 +1°C° 0 mm 5 mps 737 mmHg 92%
    02:00 +1°C° 0 mm 5 mps 737 mmHg 91%
    03:00 +1°C° 0 mm 5 mps 737 mmHg 91%
    04:00 0°C° 0 mm 5 mps 736 mmHg 92%
    05:00 0°C° 0 mm 5 mps 736 mmHg 92%
    06:00 0°C° 0 mm 5 mps 736 mmHg 92%
    07:00 0°C° 0 mm 5 mps 736 mmHg 91%
    08:00 +1°C° 0 mm 6 mps 736 mmHg 91%
    09:00 +1°C° 0 mm 6 mps 736 mmHg 88%
    10:00 +1°C° 0 mm 6 mps 736 mmHg 84%
    11:00 0°C° 0 mm 7 mps 736 mmHg 80%
    12:00 0°C° 0.1 mm 7 mps 737 mmHg 78%
    13:00 0°C° 0.1 mm 7 mps 737 mmHg 76%
    14:00 0°C° 0.1 mm 7 mps 737 mmHg 74%
    15:00 -1°C° 0 mm 6 mps 737 mmHg 74%
    16:00 -1°C° 0 mm 5 mps 738 mmHg 75%
    17:00 -1°C° 0 mm 5 mps 738 mmHg 76%
    18:00 -2°C° 0.1 mm 5 mps 739 mmHg 77%
    19:00 -2°C° 0.1 mm 5 mps 739 mmHg 78%
    20:00 -2°C° 0.1 mm 5 mps 740 mmHg 78%
    21:00 -2°C° 0 mm 5 mps 740 mmHg 77%
    22:00 -4°C° 0 mm 5 mps 741 mmHg 76%
    23:00 -4°C° 0 mm 5 mps 742 mmHg 75%

    Tomorrow, 26 January, Sunday

    Time Temperature Precipitation Wind Pressure Humidity
    00:00 -3°C° 0 mm 4 mps 742 mmHg 76%
    01:00 -4°C° 0 mm 4 mps 743 mmHg 78%
    02:00 -4°C° 0 mm 4 mps 744 mmHg 79%
    03:00 -4°C° 0 mm 4 mps 744 mmHg 81%
    04:00 -4°C° 0 mm 3 mps 744 mmHg 82%
    05:00 -4°C° 0 mm 3 mps 745 mmHg 84%
    06:00 -4°C° 0 mm 3 mps 745 mmHg 84%
    07:00 -4°C° 0 mm 3 mps 745 mmHg 84%
    08:00 -3°C° 0 mm 2 mps 745 mmHg 85%
    09:00 -2°C° 0 mm 3 mps 745 mmHg 80%
    10:00 -3°C° 0 mm 4 mps 745 mmHg 75%
    11:00 -2°C° 0 mm 5 mps 745 mmHg 71%
    12:00 -1°C° 0 mm 5 mps 745 mmHg 70%
    13:00 0°C° 0 mm 5 mps 745 mmHg 68%
    14:00 -1°C° 0 mm 6 mps 745 mmHg 67%
    15:00 -1°C° 0 mm 6 mps 745 mmHg 73%
    16:00 -1°C° 0 mm 6 mps 744 mmHg 79%
    17:00 0°C° 0 mm 5 mps 744 mmHg 85%
    18:00 0°C° 0 mm 5 mps 744 mmHg 85%
    19:00 0°C° 0 mm 5 mps 744 mmHg 86%
    20:00 0°C° 0 mm 5 mps 744 mmHg 86%
    21:00 0°C° 0 mm 5 mps 744 mmHg 87%
    22:00 0°C° 0 mm 5 mps 744 mmHg 88%
    23:00 0°C° 0 mm 5 mps 744 mmHg 88%

    Day after tomorrow, 27 January, Monday

    Time Temperature Precipitation Wind Pressure Humidity
    00:00 0°C° 0 mm 5 mps 744 mmHg 89%
    01:00 0°C° 0 mm 5 mps 744 mmHg 90%
    02:00 0°C° 0 mm 5 mps 744 mmHg 91%
    03:00 0°C° 0 mm 4 mps 744 mmHg 92%
    04:00 0°C° 0 mm 4 mps 744 mmHg 93%
    05:00 0°C° 0 mm 4 mps 744 mmHg 94%
    06:00 +1°C° 0 mm 3 mps 744 mmHg 95%
    07:00 +1°C° 0 mm 3 mps 744 mmHg 96%
    08:00 +1°C° 0 mm 3 mps 744 mmHg 96%
    09:00 +1°C° 0 mm 3 mps 744 mmHg 96%
    10:00 +1°C° 0 mm 3 mps 744 mmHg 97%
    11:00 +2°C° 0 mm 2 mps 744 mmHg 97%
    12:00 +2°C° 0 mm 2 mps 744 mmHg 97%
    13:00 +2°C° 0 mm 2 mps 744 mmHg 97%
    14:00 +2°C° 0 mm 2 mps 744 mmHg 97%
    15:00 +2°C° 0 mm 2 mps 744 mmHg 97%
    16:00 +2°C° 0 mm 2 mps 744 mmHg 97%
    17:00 +2°C° 0 mm 2 mps 743 mmHg 98%
    18:00 +2°C° 0 mm 2 mps 743 mmHg 97%
    19:00 +2°C° 0 mm 2 mps 743 mmHg 97%
    20:00 +1°C° 0 mm 3 mps 743 mmHg 97%
    21:00 +1°C° 0 mm 3 mps 743 mmHg 97%
    22:00 0°C° 0 mm 3 mps 743 mmHg 97%
    23:00 0°C° 0 mm 3 mps 742 mmHg 97%

    28 January, Tuesday

    Time Temperature Precipitation Wind Pressure Humidity
    00:00 0°C° 0.2 mm 3 mps 742 mmHg 97%
    01:00 -1°C° 0.2 mm 2 mps 742 mmHg 97%
    02:00 -1°C° 0.2 mm 2 mps 741 mmHg 98%
    03:00 -1°C° 0.3 mm 2 mps 741 mmHg 98%
    04:00 -1°C° 0.3 mm 2 mps 741 mmHg 97%
    05:00 -1°C° 0.3 mm 2 mps 740 mmHg 97%
    06:00 -1°C° 0.1 mm 2 mps 740 mmHg 97%
    07:00 -1°C° 0.1 mm 2 mps 740 mmHg 97%
    08:00 -1°C° 0.1 mm 2 mps 740 mmHg 97%
    09:00 -1°C° 0 mm 2 mps 740 mmHg 95%
    10:00 -1°C° 0 mm 2 mps 740 mmHg 94%
    11:00 -1°C° 0 mm 2 mps 740 mmHg 92%
    12:00 +1°C° 0 mm 2 mps 739 mmHg 93%
    13:00 +1°C° 0 mm 2 mps 739 mmHg 95%
    14:00 +2°C° 0 mm 1 mps 739 mmHg 96%
    15:00 +1°C° 0.1 mm 2 mps 739 mmHg 96%
    16:00 +1°C° 0.1 mm 2 mps 739 mmHg 97%
    17:00 +2°C° 0.1 mm 2 mps 739 mmHg 98%
    18:00 +2°C° 0 mm 2 mps 739 mmHg 97%
    19:00 +1°C° 0 mm 3 mps 739 mmHg 97%
    20:00 +1°C° 0 mm 3 mps 739 mmHg 96%
    21:00 0°C° 0 mm 3 mps 738 mmHg 95%
    22:00 0°C° 0 mm 3 mps 738 mmHg 95%
    23:00 -1°C° 0 mm 4 mps 738 mmHg 94%

    29 January, Wednesday

    Time Temperature Precipitation Wind Pressure Humidity
    00:00 -1°C° 0 mm 4 mps 738 mmHg 94%
    01:00 -1°C° 0 mm 4 mps 737 mmHg 95%
    02:00 -2°C° 0 mm 5 mps 737 mmHg 95%
    03:00 -1°C° 0 mm 5 mps 736 mmHg 94%
    04:00 -1°C° 0 mm 5 mps 736 mmHg 94%
    05:00 -1°C° 0 mm 5 mps 735 mmHg 93%
    06:00 -1°C° 0 mm 5 mps 735 mmHg 93%
    07:00 -1°C° 0 mm 5 mps 734 mmHg 94%
    08:00 -1°C° 0 mm 5 mps 734 mmHg 94%
    09:00 -1°C° 0.4 mm 5 mps 734 mmHg 95%
    10:00 -1°C° 0.4 mm 5 mps 733 mmHg 96%
    11:00 0°C° 0.4 mm 5 mps 733 mmHg 96%
    12:00 0°C° 0.4 mm 5 mps 732 mmHg 97%
    13:00 0°C° 0.4 mm 5 mps 732 mmHg 97%
    14:00 0°C° 0.4 mm 4 mps 731 mmHg 97%
    15:00 0°C° 0.3 mm 4 mps 731 mmHg 97%
    16:00 0°C° 0.3 mm 4 mps 731 mmHg 97%
    17:00 +1°C° 0.3 mm 3 mps 731 mmHg 97%
    18:00 +1°C° 0.7 mm 3 mps 730 mmHg 97%
    19:00 -1°C° 0.7 mm 4 mps 730 mmHg 97%
    20:00 -1°C° 0.7 mm 4 mps 730 mmHg 97%
    21:00 -1°C° 0.4 mm 4 mps 730 mmHg 96%
    22:00 -1°C° 0.4 mm 4 mps 730 mmHg 95%
    23:00 -2°C° 0.4 mm 4 mps 730 mmHg 94%

    30 January, Thursday

    Time Temperature Precipitation Wind Pressure Humidity
    00:00 -2°C° 0 mm 4 mps 731 mmHg 93%
    01:00 -2°C° 0 mm 4 mps 731 mmHg 91%
    02:00 -3°C° 0 mm 4 mps 731 mmHg 90%
    03:00 -2°C° 0 mm 3 mps 731 mmHg 91%
    04:00 -4°C° 0 mm 3 mps 731 mmHg 91%
    05:00 -4°C° 0 mm 3 mps 731 mmHg 92%
    06:00 -3°C° 0 mm 2 mps 731 mmHg 93%
    07:00 -3°C° 0 mm 2 mps 731 mmHg 93%
    08:00 -3°C° 0 mm 2 mps 731 mmHg 94%
    09:00 -2°C° 0 mm 2 mps 731 mmHg 93%
    10:00 -2°C° 0 mm 2 mps 731 mmHg 92%
    11:00 -1°C° 0 mm 2 mps 731 mmHg 91%
    12:00 -1°C° 0 mm 2 mps 731 mmHg 90%
    13:00 -1°C° 0 mm 2 mps 731 mmHg 89%
    14:00 +1°C° 0 mm 2 mps 731 mmHg 89%
    15:00 -1°C° 0 mm 2 mps 731 mmHg 89%
    16:00 -1°C° 0 mm 2 mps 731 mmHg 90%
    17:00 -1°C° 0 mm 2 mps 731 mmHg 90%
    18:00 -1°C° 0 mm 2 mps 731 mmHg 90%
    19:00 -1°C° 0 mm 2 mps 731 mmHg 89%
    20:00 -1°C° 0 mm 2 mps 731 mmHg 89%
    21:00 -1°C° 0.1 mm 2 mps 731 mmHg 91%
    22:00 -2°C° 0.1 mm 2 mps 731 mmHg 93%
    23:00 -2°C° 0.1 mm 3 mps 731 mmHg 96%
    Show more